{"data":{"norad_id":64009,"epoch":"2026-05-24T10:39:20.152800Z","epoch_age_seconds":126185,"freshness":"FRESH","line1":"1 64009U 25101R   26144.44398325  .00030928  00000+0  11279-2 0  9996","line2":"2 64009  42.9991 289.8987 0001386 271.7145  88.3548 15.27605509 58640","mean_motion":15.27605509,"eccentricity":0.0001386,"inclination_deg":42.9991,"raan_deg":289.8987,"arg_perigee_deg":271.7145,"mean_anomaly_deg":88.3548,"bstar":0.0011279,"rev_number":5864,"period_min":94.265174583106,"perigee_km":482.0217641734,"apogee_km":483.92366378611,"semimajor_km":6861.1097139798,"source":"CELESTRAK","updated_at":"2026-05-25T13:38:20.220830Z"}}